COSMOS 1275 DEB, 12654

Orbit data source: Space-Track

COSMOS 1275 DEB, 12654 is space debris in LEO originally from a launch on Thu, 04 Jun 1981 UTC launched from the Plesetsk Missile And Space Complex (PKMTR). Debris objects in space refer to the collection of defunct objects orbiting the Earth. Examples of debris include non-operational satellites, rocket bodies, and fragments generated from explosions, collisions, or faulty payload assembly.

Loading next visibility...
Identifier
12654, 1981-053J
Orbit
LEO
Country
Flag of CISCIS
Related business
Manufacturer
Unknown
Mission
Spacecraft
Bus & Motor
Unknown
Mass
Unknown
Launch date (UTC)
1981-06-04 (45 years ago)
Launch vehicle
Unknown
Launch site
Plesetsk Missile And Space Complex (PKMTR)
Object type
Payload
Rocket body
Debris
Shape & HBR
Unknown shape, 0.2 m
Radar Cross Section
Medium (>0.1 m² and <1 m²)

Expand to show TLE details & history
Last TLE update: 12 hours ago

TLE from 12 hours ago
0 COSMOS 1275 DEB
1 12654U 81053J   26145.53769925  .00000351  00000-0  19179-3 0  9998
2 12654  82.9823 237.6244 0043865 322.0134  53.8717 14.08993936284918
Epoch: 2026-05-25T12:54Z
TLE epoch observation values (Epoch: 2026-05-25T12:54:17.215Z)
Latitude
16.14844°
Longitude
162.96045°
Altitude
846.466 km
Speed
7.44 km/s
True Right ascension
15h 58m 37s
True Declination
16° 03' 29"
Sunlit
Object was in full shadow at epoch
Visualization orbit readout
Latitude
Unknown
Longitude
Unknown
Altitude
Unknown
Speed
Unknown
Apparent Right ascension
Unknown
Apparent Declination
Unknown
Sunlit
N/A
Visualization observer readout
Local Sidereal Time
10:19:09
Azimuth
Unknown
Elevation
Unknown
Doppler factor
Unknown
Orbital elements
Apogee altitude
891.666 km
Perigee altitude
828.167 km
Semi-major axis
7,238.054 km
Eccentricity
0.00439
Inclination
82.9823°
RAAN
237.6244°
Arg. of periapsis
322.0134°
True anomaly
54.27901°
Mean anomaly
53.8717°
Eccentric anomaly
54.07522°
Mean motion
3.52461 °/min
Orbital period
102.14 mins
BSTAR
0.00019179
Loading maneuver chart data...
Computing Atmospheric mass density...

Documentation

Showing up to 5 results
|